TimePDT,TemperatureF,Dew PointF,Humidity,Sea Level PressureIn,VisibilityMPH,Wind Direction,Wind SpeedMPH,Gust SpeedMPH,PrecipitationIn,Events,Conditions,WindDirDegrees,DateUTC
12:56 AM,50.0,35.1,57,29.67,10.0,NW,6.9,-,N/A,,Clear,320,2013-09-22 07:56:00
1:56 AM,51.1,32.0,48,29.66,10.0,North,12.7,-,N/A,,Clear,360,2013-09-22 08:56:00
2:56 AM,50.0,25.0,38,29.67,10.0,NNW,12.7,-,N/A,,Clear,340,2013-09-22 09:56:00
3:56 AM,48.9,28.0,44,29.69,10.0,NNW,12.7,25.3,N/A,,Clear,330,2013-09-22 10:56:00
4:56 AM,50.0,23.0,35,29.72,10.0,North,15.0,28.8,N/A,,Scattered Clouds,350,2013-09-22 11:56:00
5:56 AM,48.0,25.0,41,29.76,10.0,NNW,13.8,23.0,N/A,,Clear,340,2013-09-22 12:56:00
6:56 AM,46.9,25.0,42,29.82,10.0,WNW,10.4,-,N/A,,Clear,300,2013-09-22 13:56:00
7:56 AM,53.1,26.1,35,29.84,10.0,North,19.6,24.2,N/A,,Clear,350,2013-09-22 14:56:00
8:56 AM,57.0,27.0,32,29.84,10.0,North,18.4,-,N/A,,Clear,360,2013-09-22 15:56:00
9:56 AM,61.0,27.0,27,29.85,10.0,NNE,16.1,23.0,N/A,,Clear,20,2013-09-22 16:56:00
10:56 AM,64.9,27.0,24,29.83,10.0,NE,10.4,-,N/A,,Clear,40,2013-09-22 17:56:00
11:56 AM,68.0,27.0,21,29.82,10.0,NE,9.2,20.7,N/A,,Clear,40,2013-09-22 18:56:00
12:56 PM,71.1,25.0,18,29.79,10.0,NNE,10.4,19.6,N/A,,Clear,30,2013-09-22 19:56:00
1:56 PM,73.9,23.0,15,29.76,10.0,NNE,15.0,21.9,N/A,,Clear,30,2013-09-22 20:56:00
2:56 PM,77.0,19.9,12,29.74,10.0,North,11.5,-,N/A,,Clear,360,2013-09-22 21:56:00
3:56 PM,77.0,16.0,10,29.73,10.0,North,10.4,-,N/A,,Clear,10,2013-09-22 22:56:00
4:56 PM,79.0,17.1,10,29.72,10.0,North,11.5,17.3,N/A,,Clear,360,2013-09-22 23:56:00
5:56 PM,75.9,23.0,14,29.73,10.0,North,12.7,-,N/A,,Clear,360,2013-09-23 00:56:00
6:56 PM,69.1,21.9,17,29.77,10.0,NNW,6.9,-,N/A,,Clear,340,2013-09-23 01:56:00
7:56 PM,66.0,21.9,19,29.80,10.0,West,9.2,-,N/A,,Clear,280,2013-09-23 02:56:00
8:56 PM,60.1,23.0,24,29.86,10.0,North,6.9,-,N/A,,Clear,360,2013-09-23 03:56:00
9:56 PM,62.1,25.0,24,29.86,10.0,West,6.9,-,N/A,,Clear,270,2013-09-23 04:56:00
10:56 PM,63.0,24.1,23,29.86,10.0,NNW,6.9,-,N/A,,Clear,340,2013-09-23 05:56:00
11:56 PM,60.1,24.1,25,29.88,10.0,WNW,5.8,-,N/A,,Clear,290,2013-09-23 06:56:00